Kalamazoo, MI

8:22 PM EDT on October 23, 2017 (GMT -0400)
Kalamazoo-Battle Creek International

Weather History for KAZO - December, 2012

Change the Weather History Date:

Saturday, December 15, 2012

  Actual Average Record
Temperature  
Mean Temperature 41 °F 29 °F  
Max Temperature 48 °F 35 °F 62 °F (1975)
Min Temperature 33 °F 23 °F 1 °F (1958)
Degree Days  
Heating Degree Days 24 36  
Month to date heating degree days 379 508  
Since 1 July heating degree days 1760 1835  
Cooling Degree Days 0 0  
Month to date cooling degree days 0 0  
Year to date cooling degree days 1051 675  
Moisture  
Dew Point 38 °F    
Average Humidity 80    
Maximum Humidity 100    
Minimum Humidity 60    
Precipitation  
Precipitation 0.06 in 0.06 in 1.29 in (1948)
Month to date precipitation 0.69 1.09  
Year to date precipitation 26.37 34.85  
Sea Level Pressure  
Sea Level Pressure 29.82 in    
Wind  
Wind Speed 7 mph (SSE)    
Max Wind Speed 14 mph    
Max Gust Speed 21 mph    
Visibility 5 miles    
Events Rain    
T = Trace of Precipitation, MM = Missing Value Source: NWS Daily Summary

Daily Weather History Graph

Daily Weather History Graph

Search for Another Location

Airport or City:

Trip Planner

Search our weather history database for the weather conditions in past years. The results will help you decide how hot, cold, wet, or windy it might be!

Date:

Astronomy

Dec. 15, 2012 Rise Set
Actual Time 8:04 AM EST 5:10 PM EST
Civil Twilight 7:32 AM EST 5:42 PM EST
Nautical Twilight 6:57 AM EST 6:18 PM EST
Astronomical Twilight 6:22 AM EST 6:52 PM EST
Moon 9:54 AM EST (12/15) 8:16 PM EST (12/15)
Length of Visible Light 10h 10m
Length of Day
9h 06m
Waxing Crescent, 8% of the Moon is Illuminated
Dec 15
Waxing Crescent
Dec 20
First Quarter
Dec 28
Full
Jan 4
Last Quarter
Jan 11
New

Hourly Weather History & Observations

Time (EST) Temp. Windchill Dew Point Humidity Pressure Visibility Wind Dir Wind Speed Gust Speed Precip Events Conditions
12:53 AM 36.0 °F - 28.9 °F 76% 30.13 in 8.0 mi Calm Calm - N/A   Clear
1:53 AM 35.1 °F 32.2 °F 28.9 °F 78% 30.12 in 8.0 mi SE 3.5 mph - N/A   Clear
2:53 AM 35.1 °F - 28.9 °F 78% 30.11 in 8.0 mi Calm Calm - N/A   Clear
3:53 AM 35.1 °F - 28.9 °F 78% 30.11 in 7.0 mi Calm Calm - N/A   Clear
4:53 AM 36.0 °F 32.1 °F 30.0 °F 79% 30.08 in 7.0 mi ESE 4.6 mph - N/A   Clear
5:53 AM 37.0 °F 33.3 °F 30.0 °F 76% 30.09 in 7.0 mi ESE 4.6 mph - N/A   Partly Cloudy
6:53 AM 37.9 °F 33.5 °F 30.0 °F 73% 30.07 in 8.0 mi SE 5.8 mph - N/A   Scattered Clouds
7:53 AM 39.0 °F 34.8 °F 30.0 °F 70% 30.05 in 8.0 mi SE 5.8 mph - N/A   Scattered Clouds
8:53 AM 39.2 °F 34.2 °F 28.4 °F 65% 29.99 in 8.0 mi SE 6.9 mph - N/A   Partly Cloudy
9:53 AM 41.0 °F 36.4 °F 28.9 °F 62% 30.00 in 9.0 mi SSE 6.9 mph - N/A   Overcast
10:53 AM 42.1 °F 37.7 °F 30.0 °F 62% 29.98 in 10.0 mi SSE 6.9 mph - 0.00 in   Overcast
11:53 AM 39.9 °F 32.5 °F 33.1 °F 77% 29.89 in 5.0 mi ESE 12.7 mph 18.4 mph 0.01 in Rain Light Rain
12:53 PM 42.1 °F 37.7 °F 35.1 °F 76% 29.87 in 8.0 mi ESE 6.9 mph - 0.00 in   Overcast
1:53 PM 42.1 °F 36.6 °F 35.1 °F 76% 29.83 in 4.0 mi SE 9.2 mph - 0.00 in Rain Light Rain
2:44 PM 41.0 °F 35.2 °F 37.4 °F 87% 29.77 in 2.5 mi SE 9.2 mph - 0.02 in Rain Light Rain
2:53 PM 41.0 °F 35.2 °F 37.9 °F 89% 29.79 in 2.0 mi SE 9.2 mph - 0.02 in Rain Light Rain
2:56 PM 41.0 °F 34.7 °F 39.2 °F 93% 29.76 in 2.0 mi SE 10.4 mph - 0.00 in Rain Light Rain
3:53 PM 43.0 °F 37.7 °F 41.0 °F 93% 29.76 in 2.0 mi SSE 9.2 mph 19.6 mph 0.01 in   Overcast
4:00 PM 42.8 °F 38.6 °F 41.0 °F 93% 29.74 in 4.0 mi SSE 6.9 mph - N/A   Overcast
4:53 PM 44.1 °F 39.5 °F 41.0 °F 89% 29.74 in 2.0 mi SSE 8.1 mph - 0.00 in Rain Light Rain
5:00 PM 44.6 °F 39.7 °F 41.0 °F 87% 29.72 in 2.0 mi SSE 9.2 mph 17.3 mph 0.00 in Rain Light Rain
5:53 PM 44.1 °F 37.7 °F 42.1 °F 93% 29.70 in 4.0 mi SSE 12.7 mph 20.7 mph 0.00 in   Overcast
6:53 PM 45.0 °F 40.1 °F 42.1 °F 90% 29.69 in 4.0 mi SSE 9.2 mph - N/A   Overcast
7:29 PM 44.6 °F 38.8 °F 42.8 °F 93% 29.67 in 4.0 mi SSE 11.5 mph 19.6 mph 0.00 in Rain Light Rain
7:53 PM 45.0 °F 41.2 °F 43.0 °F 93% 29.68 in 4.0 mi SSE 6.9 mph - 0.00 in   Overcast
8:53 PM 45.0 °F 40.1 °F 44.1 °F 97% 29.67 in 2.5 mi South 9.2 mph - 0.01 in Rain Light Rain
9:01 PM 44.6 °F 39.7 °F 44.6 °F 100% 29.65 in 3.0 mi South 9.2 mph - 0.00 in Rain Light Rain
9:53 PM 46.0 °F 41.9 °F 45.0 °F 96% 29.66 in 3.0 mi South 8.1 mph - 0.01 in   Overcast
10:53 PM 46.9 °F - 46.0 °F 97% 29.65 in 3.0 mi South 10.4 mph - N/A   Overcast
11:07 PM 46.4 °F 41.9 °F 46.4 °F 100% 29.63 in 2.5 mi South 9.2 mph - 0.00 in Rain Light Rain
11:20 PM 46.4 °F 41.9 °F 46.4 °F 100% 29.63 in 3.0 mi South 9.2 mph - 0.00 in   Overcast
11:23 PM 46.4 °F 42.4 °F 46.4 °F 100% 29.63 in 3.0 mi South 8.1 mph - 0.00 in   Overcast
11:30 PM 46.4 °F 42.4 °F 46.4 °F 100% 29.63 in 3.0 mi South 8.1 mph - 0.00 in   Overcast
11:38 PM 48.2 °F - 46.4 °F 93% 29.63 in 2.5 mi South 10.4 mph - 0.00 in Rain Light Rain
11:53 PM 48.0 °F - 46.9 °F 96% 29.64 in 3.0 mi South 9.2 mph - 0.00 in Rain Light Rain